Flag for Maldives Weather past 2 weeks in Male, Maldives

Now
84 °F

Partly sunny.


Feels Like: 91 °F
Forecast: 82 / 87 °F
Wind: 8 mph from Southwest

Location: Male Airport

Current Time: Aug 27, 2014 at 6:33:43 PM

Latest Report: Aug 27, 2014 at 6:00 PM


Visibility: N/A

Pressure: 29.80 "Hg

Humidity: 70%

Dew point: 73 °F

Location of MaleLocation

Historic Weather in Male — Graph

°F

Male temperature yesterday

Maximum temperature yesterday: 88 °F (at 11:00 AM)
Minimum temperature yesterday: 79 °F (at 5:00 AM)
Average temperature yesterday: 84 °F

Past Weeks' High & Low Weather Summary

 TemperatureHumidityPressure
High88 °F (Aug 15, 1:00 PM)100% (Aug 20, 12:00 AM)29.95 "Hg (Aug 20, 12:00 AM)
Low77 °F (Aug 20, 12:00 AM)66% (Aug 17, 1:00 PM)29.74 "Hg (Aug 21, 3:00 PM)
Average83 °F81%29.86 "Hg
* Reported Aug 12 5:00 PM — Aug 27 5:00 PM, Male, Weather by CustomWeather, © 2014

Note: Actual official high and low records may vary slightly from our data, if they occured in-between our weather recording intervals... More about our weather records

Advertising

Male weather history for previous 24 hours

 ConditionsComfort  
Time TempWeatherWind HumidityBarometerVisibility
5:00 PM
Aug 27
86 °FPartly sunny.9 mph66%29.80 "HgN/A
4:00 PM86 °FWarm.8 mph66%29.80 "HgN/A
3:00 PM88 °FPartly sunny.9 mph66%29.80 "HgN/A
2:00 PM88 °FPartly sunny.8 mph66%29.80 "HgN/A
1:00 PM86 °FScattered clouds.8 mph70%29.83 "HgN/A
12:00 PM86 °FPassing clouds.8 mph66%29.86 "HgN/A
11:00 AM86 °FPassing clouds.8 mph66%29.89 "HgN/A
10:00 AM86 °FPassing clouds.6 mph70%29.89 "HgN/A
9:00 AM86 °FPartly sunny.6 mph66%29.89 "HgN/A
8:00 AM84 °FPartly sunny.6 mph70%29.89 "HgN/A
7:00 AM82 °FScattered clouds.5 mph74%29.86 "HgN/A
6:00 AM82 °FPassing clouds.5 mph74%29.83 "HgN/A
5:00 AM82 °FPassing clouds.6 mph79%29.83 "HgN/A
4:00 AM82 °FPassing clouds.3 mph79%29.83 "HgN/A
3:00 AM82 °FPassing clouds.2 mph79%29.83 "HgN/A
2:00 AM82 °FPassing clouds.3 mph74%29.86 "HgN/A
1:00 AM82 °FPassing clouds.5 mph74%29.86 "HgN/A
12:00 AM82 °FPassing clouds.5 mph74%29.89 "HgN/A
11:00 PM
Aug 26
82 °FPassing clouds.3 mph74%29.89 "HgN/A
10:00 PM84 °FPassing clouds.5 mph70%29.89 "HgN/A
9:00 PM84 °FPassing clouds.5 mph70%29.89 "HgN/A
8:00 PM84 °FPassing clouds.6 mph70%29.89 "HgN/A
7:00 PM84 °FPassing clouds.6 mph70%29.86 "HgN/A
6:00 PM84 °FPassing clouds.5 mph70%29.86 "HgN/A
Weather by CustomWeather, © 2014

See weather overviewHow to use our weather pages